Regional Weather Roundup
Issued by NWS

Home | Current Version | Previous Version | Text Only | Print | Product List | Glossary On
Versions: 1 2 3 4 5 6 7 8 9 10 11 12 13 14 15 16 17 18 19 20 21 22 23 24 25 26 27 28 29 30 31 32 33 34 35 36 37 38 39 40 41 42 43 44 45 46 47 48 49 50
000
ASUS44 KOUN 231610
RWROK

WEATHER ROUNDUP FOR OKLAHOMA
NATIONAL WEATHER SERVICE NORMAN OK
1100 AM CDT TUE MAY 23 2017

NOTE: "FAIR" INDICATES FEW OR NO CLOUDS BELOW 12,000 FEET WITH NO
      SIGNIFICANT WEATHER AND/OR OBSTRUCTIONS TO VISIBILITY.

OKZ001>007-009>012-014-015-017-231700-
NORTHWEST OKLAHOMA AND THE PANHANDLE

CITY           SKY/WX    TMP DP  RH WIND       PRES   REMARKS
GAGE           PTSUNNY   59  46  62 N17       30.06S
GUYMON         CLOUDY    55  44  66 N18G24    30.13S
ENID/WOODRING  PTSUNNY   59  52  77 NW16G24   29.97S
$$

OKZ016-021>023-033>039-044-045-231700-
SOUTHWEST OKLAHOMA

CITY           SKY/WX    TMP DP  RH WIND       PRES   REMARKS
LAWTON/REGL    CLOUDY    62  54  74 N16G24    29.98R
FREDERICK      CLOUDY    62  51  67 N20       29.98R
CLINTON        CLOUDY    58  46  64 N21       30.04R
HOBART         CLOUDY    57  50  77 N20G28    30.03R
$$

OKZ018>020-024>031-231700-
CENTRAL OKLAHOMA

CITY           SKY/WX    TMP DP  RH WIND       PRES   REMARKS
OKLAHOMA CITY  PTSUNNY   59  51  75 N21G26    29.96S
OKC/WILEY POST CLOUDY    59  53  80 N18G24    29.97R
STILLWATER     CLOUDY    58  51  78 NW14G21   29.97R
GUTHRIE        CLOUDY    58  52  80 N10       29.98R
$$

OKZ008-013-054>072-231700-
NORTHEAST OKLAHOMA

CITY           SKY/WX    TMP DP  RH WIND       PRES   REMARKS
TULSA          CLOUDY    69  56  62 N13       29.89S
TULSA/JONES    CLOUDY    67  55  65 N8        29.91S
PONCA CITY     CLOUDY    58  50  75 N12       29.96R
BARTLESVILLE   CLOUDY    60  50  69 VRB3      29.94R
MUSKOGEE       PTSUNNY   66  57  72 NW10      29.90R
$$

OKZ032-040>043-046>053-073>077-231700-
SOUTH CENTRAL/SOUTHEAST OKLAHOMA

CITY           SKY/WX    TMP DP  RH WIND       PRES   REMARKS
ARDMORE/DWNTWN CLOUDY    64  54  68 NE5       29.92S
MCALESTER      CLOUDY    69  60  73 N16       29.90R
$$





USA.gov is the U.S. government's official web portal to all federal, state and local government web resources and services.